[Iaude] MPEC J137: 2017 BE232 [a=42.06,e=0.16,i=3.3,H=9.58]

mpec at cfa.harvard.edu mpec at cfa.harvard.edu
Wed May 8 05:29:41 EDT 2024


M.P.E.C. 2024-J137                                  Issued 2024 May 8, 09:27 UT

     The Minor Planet Electronic Circulars contain information on unusual
         minor planets, routine data on comets and natural satellites,
         and occasional editorial announcements.  They are published
    on behalf of Division F of the International Astronomical Union by the
          Minor Planet Center, Smithsonian Astrophysical Observatory,
                          Cambridge, MA 02138, U.S.A.
			  
             Prepared using the Tamkin Foundation Computer Network

                              MPC at CFA.HARVARD.EDU
            URL https://www.minorplanetcenter.net/    ISSN 1523-6714

                                   2017 BE232                                   


Additional Observations:
     K17BN2E 1C2015 03 20.45798512 13 42.19 +00 46 19.1                WEJ137T09
     K17BN2E 1C2015 03 25.48279312 13 16.05 +00 49 04.9                WEJ137T09
     K17BN2E 1C2016 04 02.41460512 19 20.79 +00 03 43.3                WEJ137T09
     K17BN2E 1C2016 04 02.44187512 19 20.64 +00 03 44.2                WEJ137T09
     K17BN2E 1C2016 04 02.52326712 19 20.22 +00 03 46.9                WEJ137T09
     K17BN2E 1C2016 04 04.34597112 19 10.89 +00 04 44.6                WEJ137T09
     K17BN2E 1C2016 04 04.41946812 19 10.51 +00 04 47.0                WEJ137T09
     K17BN2E 1C2017 01 28.59806512 30 40.00 -01 15 55.4                WEJ137T09
     K17BN2E 1C2017 01 28.65068012 30 39.88 -01 15 54.7                WEJ137T09
     K17BN2E 1C2017 02 02.60940612 30 28.55 -01 14 31.3                WEJ137T09
     K17BN2E 1C2017 02 02.64453012 30 28.45 -01 14 30.6                WEJ137T09

Observer details:
T09 Subaru Telescope, Maunakea.  Observer .  Measurer S. Deen.  8.3-m Subaru
    Telescope + CCD.

Orbital elements:
2017 BE232                                                                      
Epoch 2024 Mar. 31.0 TT = JDT 2460400.5                 Alexandersen            
M   9.92732              (2000.0)            P               Q                  
n   0.00361263     Peri.  145.36453     -0.99478722     +0.09491784             
a  42.0649132      Node    40.13313     -0.10163844     -0.89337232             
e   0.1586628      Incl.    3.31473     -0.00824742     -0.43917708             
P 273              H    9.58          G   0.15           U   6                  
Residuals in seconds of arc
150320 T09  0.1+  0.1-    170123 T09  0.0   0.1+    170202 T09  0.1+  0.0
150325 T09  0.0   0.1+    170123 T09  0.1+  0.1-    170223 T09  0.0   0.1+
160402 T09  0.0   0.1-    170123 T09  0.1-  0.1+    170223 T09  0.1-  0.1-
160402 T09  0.1-  0.0     170123 T09  0.3-  0.1+    170223 T09  0.1-  0.0
160402 T09  0.0   0.1+    170128 T09  0.1+  0.0     170223 T09  0.0   0.0
160404 T09  0.0   0.0     170128 T09  0.0   0.0
160404 T09  0.1+  0.0     170202 T09  0.2+  0.1-

Ephemeris:
2017 BE232               a,e,i = 42.06, 0.16, 3                  q = 35.3908
Date    TT    R. A. (2000) Decl.     Delta      r    Elong.  Phase     V
2024 04 08    13 13 30.1 -06 28 34  34.5313 35.5322   178.4     0.0    25.0
...
2024 04 23    13 12 12.1 -06 20 59  34.5573 35.5338   166.0     0.4    25.1
...
2024 05 01    13 11 32.6 -06 17 13  34.5979 35.5346   158.1     0.6    25.1
...
2024 05 07    13 11 04.6 -06 14 34  34.6400 35.5352   152.1     0.8    25.2
2024 05 08    13 11 00.1 -06 14 09  34.6479 35.5353   151.2     0.8    25.2
2024 05 09    13 10 55.7 -06 13 44  34.6561 35.5354   150.2     0.8    25.2
...
2024 05 15    13 10 30.3 -06 11 22  34.7106 35.5360   144.3     1.0    25.2
...
2024 05 23    13 10 00.0 -06 08 37  34.7964 35.5369   136.4     1.1    25.2
...
2024 06 07    13 09 16.6 -06 04 53  34.9922 35.5384   121.9     1.4    25.2

M. P. C. Staff               (C) Copyright 2024 MPC           M.P.E.C. 2024-J137





More information about the Iaude mailing list